Location: Aressy
(43.2833°N, 0.3167°W)
Time: 12:39:56
(UTC+00:00)

Daily predictions for brighter satellites

Satellite Brightness Start Highest point End
(mag) Time Altitude Azimuth Time Altitude Azimuth Time Altitude Azimuth
USA 229 DEB 4.1 17:26:04 10° NNW 17:33:08 50° NE 17:40:33 10° ESE
USA 229 4.2 17:26:10 10° NNW 17:33:14 50° NE 17:40:39 10° ESE
CZ-3B R/B 2.8 17:31:57 10° NNW 17:34:20 30° NE 17:39:55 10° E
SJ 16-02 2.2 17:31:00 10° SW 17:35:17 52° WNW 17:39:35 10° N
SeaSat 1 3.9 17:31:45 10° N 17:36:13 35° NW 17:40:39 10° WSW
FengYun 1-2 T 4.3 17:32:18 10° SSE 17:37:52 79° ENE 17:43:32 10° NNW
Cosmos 158 Rocket 4.3 17:32:38 10° NNW 17:38:02 80° WSW 17:43:26 10° SSE
Cosmos 2112 Rocket 4.0 17:33:15 10° NNW 17:38:27 61° ENE 17:43:34 10° SSE
Cosmos 990 Rocket 4.0 17:33:31 10° SSW 17:38:42 75° ESE 17:43:53 10° NNE
YAOGAN 1 4.0 17:36:24 10° ESE 17:39:20 18° ENE 17:42:15 10° NNE
Cosmos 1844 Rocket 3.6 17:34:56 10° SW 17:40:24 49° WNW 17:45:53 10° NNE
H-2A R/B 3.1 17:36:59 10° S 17:41:04 63° WSW 17:45:22 10° NNW
Cosmos 1689 Rocket 4.2 17:42:31 10° E 17:42:44 10° E 17:42:57 10° E
Aureole 3 Rocket 3.7 17:40:54 10° NNE 17:43:46 25° E 17:47:11 10° SE
Cosmos 1844 4.4 17:38:51 10° SW 17:44:25 57° WNW 17:50:05 10° NNE
COSMOS 2406 3.7 17:39:29 10° NNW 17:44:55 40° ENE 17:50:18 10° SE
Cosmos 2082 Rocket 3.4 17:40:40 10° N 17:45:01 22° NE 17:49:19 10° E
Cosmos 1703 3.2 17:42:36 10° S 17:46:25 61° E 17:50:15 10° NNE
X-37B 0.7 17:45:16 10° WNW 17:48:26 67° N 17:51:36 10° E
NOSS 3-1 (A) 4.2 17:41:32 10° NNW 17:48:52 55° NE 17:57:19 10° SE
ISS -1.9 17:48:30 10° NW 17:51:06 20° N 17:53:41 10° NE
Cosmos 1812 Rocket 3.7 17:48:45 10° N 17:53:01 51° ENE 17:57:15 10° SSE
Okean O Rocket 2.1 17:50:03 10° S 17:54:27 68° WSW 17:58:52 10° NNW
Meteor 2-1 Rocket 4.4 17:49:22 10° NNW 17:54:53 77° W 18:00:22 10° S
CZ-4 R/B 2.2 17:55:18 10° SE 17:58:48 29° ENE 18:02:16 10° N
Iridium 4 Rocket 3.7 17:56:20 10° N 18:01:26 45° E 18:06:05 10° SSE
ERS-2 2.9 17:59:57 10° NE 18:03:13 31° E 18:06:29 10° SSE
SKYMED 2 3.6 17:58:58 10° NNE 18:03:18 65° E 18:07:36 10° S
Okean-O 3.2 18:02:19 10° SE 18:06:18 34° ENE 18:10:18 10° N
Cosmos 1340 2.7 18:06:12 10° S 18:09:56 83° W 18:13:42 10° N
Cosmos 1346 Rocket 3.3 18:06:53 10° SSE 18:10:29 36° E 18:14:08 10° NNE
Cosmos 2278 Rocket 2.3 18:05:03 10° S 18:10:34 57° ESE 18:16:08 10° NNE
Cosmos 1953 Rocket 4.4 18:10:22 10° SSE 18:14:01 27° E 18:17:41 10° NNE
CZ-2C R/B 3.2 18:09:16 10° SSE 18:14:42 74° ENE 18:20:26 10° N
Cosmos 44 Rocket 4.1 18:16:28 10° S 18:20:46 32° ESE 18:23:19 20° ENE
SAR-Lupe-4 3.9 18:17:50 10° NNE 18:21:11 41° E 18:24:34 10° S
Cosmos 405 2.8 18:19:40 10° N 18:23:13 83° E 18:26:43 10° S
ARGOS 3.5 18:23:23 10° SE 18:28:22 41° ENE 18:33:22 10° N
Meteor 2-19 Rocket 4.4 18:23:55 10° S 18:30:03 73° E 18:36:12 10° NNE
Cosmos 372 Rocket 3.9 18:29:06 10° SSW 18:34:16 74° ESE 18:39:31 10° NNE
PSLV R/B 3.9 18:30:22 10° NNE 18:34:35 70° E 18:38:46 10° S
Cosmos 1092 Rocket 4.5 18:28:41 10° SSW 18:34:47 63° W 18:40:53 10° N
SAR-Lupe-1 3.9 18:34:05 13° NNE 18:37:16 67° E 18:40:50 10° S
CZ-4B R/B 3.0 18:35:05 10° N 18:38:07 34° WNW 18:41:03 10° SW
CZ-2D R/B 4.2 18:35:30 10° S 18:39:14 50° W 18:42:59 10° NNW
CZ-2C R/B 3.3 18:34:33 10° NNE 18:39:41 35° E 18:44:47 10° SSE
Cosmos 2150 Rocket 4.3 18:38:42 10° S 18:43:33 44° ESE 18:45:58 26° NE
MOS 1 Rocket 3.8 18:41:52 10° N 18:46:03 54° WNW 18:50:17 10° SSW
Cosmos 1048 Rocket 4.2 18:42:33 10° N 18:47:28 44° ENE 18:49:37 29° ESE
Cosmos-2242 3.1 18:43:37 10° N 18:47:56 77° W 18:52:15 10° S
Meteor 1-11 4.4 18:44:32 10° SSW 18:50:12 72° W 18:55:51 10° N
COSMO-SKYMED 1 4.0 18:47:14 10° N 18:51:16 38° WNW 18:55:17 10° SW
Cosmos 2297 4.4 18:46:23 10° SSE 18:51:18 32° ESE 18:51:23 31° ESE
Cosmos 1758 Rocket 4.4 18:48:56 10° SSW 18:53:17 53° WNW 18:57:42 10° N
USA 290 3.3 18:53:07 10° NNW 18:56:11 45° WSW 18:59:14 10° S
SL-08 RB Rocket 3.7 18:59:18 47° ESE 19:00:01 52° ENE 19:04:22 10° N
USA 276 4.0 18:57:16 10° SSW 18:58:53 22° S 18:58:53 22° S
CSL-04 Debris 4.0 18:56:46 10° SSE 19:02:08 78° ENE 19:07:33 10° NNW
Helios 1A Rocket 3.0 19:00:54 10° S 19:05:02 78° WSW 19:09:12 10° NNW
H-2A R/B 2.3 19:01:44 10° S 19:06:45 67° WSW 19:11:56 10° NNW
Cosmos 1125 Rocket 3.5 19:03:07 10° S 19:08:11 54° ESE 19:08:41 52° E
Cosmos 1809 Rocket 4.3 19:02:41 10° S 19:08:44 66° E 19:14:50 10° NNE
Cosmos 1833 Rocket 3.4 19:04:06 10° NNW 19:09:33 53° WSW 19:14:59 10° S
Cosmos 2298 Rocket 3.9 19:05:30 10° SSW 19:10:48 84° ESE 19:13:35 29° NNE
Cosmos 2266 Rocket 3.9 19:06:45 10° S 19:12:54 64° E 19:18:59 10° NNE
Cosmos 1689 Rocket 3.9 19:13:24 27° NW 19:13:51 29° WNW 19:16:21 10° SW
YAOGAN 1 3.6 19:10:56 10° S 19:15:04 45° W 19:19:15 10° NNW
In-Cosmos 22 Rocket 4.2 19:16:49 10° S 19:22:37 89° W 19:28:20 10° N
X-37B 2.6 19:21:59 10° W 19:23:54 29° WSW 19:23:54 29° WSW
Cosmos 1943 Rocket 3.8 19:21:34 10° S 19:23:18 19° SSE 19:23:18 19° SSE
ISS -1.1 19:25:50 10° NW 19:26:49 16° NNW 19:26:49 16° NNW
Cosmos 2082 Rocket 2.4 19:23:57 10° NNW 19:29:38 68° WSW 19:33:42 19° S
CZ-4 R/B 3.8 19:30:38 10° SSW 19:33:49 22° W 19:36:59 10° NW
Meteor 2-21 4.4 19:32:25 10° S 19:38:30 85° W 19:44:41 10° N
NOSS 2-2 (E) 4.5 19:37:30 10° NNW 19:43:14 74° NE 19:43:31 73° ENE
CSL-04 Rocket 4.5 19:38:06 10° S 19:43:23 51° W 19:48:45 10° NNW
Meteor 2-14 Rocket 4.4 19:40:28 10° SSW 19:46:31 78° W 19:52:39 10° N
Cosmos 2315 Rocket 3.9 19:41:04 10° N 19:46:33 69° NNE 19:46:33 69° NNE
Cosmos 883 Rocket 4.4 19:41:54 10° N 19:48:07 84° W 19:50:11 45° S
USA 234 4.2 19:53:13 32° NNE 19:53:13 32° NNE 19:58:41 10° NW
Cosmos 2278 Rocket 4.2 19:50:25 10° WSW 19:55:01 25° NW 19:59:05 12° N
CZ-4C R/B 4.4 19:53:33 10° NNW 19:56:58 19° NNE 19:56:58 19° NNE
CZ-2C R/B 4.2 20:15:10 11° N 20:19:53 35° WNW 20:24:54 10° SW
ATLAS 5 CENTAUR R/B 4.2 20:18:00 10° SSW 20:39:15 68° S 20:39:15 68° S
